User: anonymous   Login
Location: Unspecified
(0.0000°N, 0.0000°E)
Time: 12:39:17
(UTC+00:00)
Language:

IRS-1B - Orbit

View from above orbital plane
View from above orbital plane
View from above satellite
View from above satellite

Ground track
Ground track

The orbit data is extracted from the following two-line orbital elements,

1 21688U 91061A   18200.82669406 -.00000159  00000-0 -81671-4 0  9998
2 21688  99.0759 143.3923 0023976 329.8115  83.0192 13.97316957265172
Epoch (UTC): 19 July 2018 19:50:26
Eccentricity: 0.0023976
inclination: 99.0759°
perigee height: 885 km
apogee height: 920 km
right ascension of ascending node: 143.3923°
argument of perigee: 329.8115°
revolutions per day: 13.97316957
mean anomaly at epoch: 83.0192°
orbit number at epoch: 26517

The dashed part of the orbit path shows where the satellite is in the earth's shadow,  

DLR